EW4221 Weather Reports


Display with metric or nautical units.
time (UTC)temp
F
wind
direction
speed
MPH
gust
MPH
rain 1hr
in
rain 24hr
in
rain mn
in
humidity
%
barometer
mb
20260831001538 67 30 1.0 4.0 0.00 0.00 0.00 87 1018.2
20260831000037 67 188 0.0 2.0 0.00 0.00 0.00 88 1018.0
20260830234540 67 188 0.0 1.0 0.00 0.00 0.00 87 1017.7
20260830233035 68 188 0.0 0.0 0.00 0.00 0.00 86 1017.7
20260830231535 68 188 0.0 0.0 0.00 0.00 0.00 85 1017.7
20260830230033 68 188 0.0 2.0 0.00 0.00 0.00 84 1017.7
20260830224533 69 269 0.0 2.0 0.00 0.00 0.00 82 1017.7
20260830223033 69 269 1.0 4.0 0.00 0.00 0.00 81 1017.7
20260830221533 69 271 1.0 3.0 0.00 0.00 0.00 81 1017.7
20260830220035 69 261 0.0 2.0 0.00 0.00 0.00 82 1017.7
20260830214531 69 304 0.0 1.0 0.00 0.00 0.00 82 1017.6
20260830213030 68 304 0.0 2.0 0.00 0.00 0.00 84 1017.7
20260830211530 68 304 0.0 3.0 0.00 0.00 0.00 83 1017.6
20260830210030 68 320 0.0 2.0 0.00 0.00 0.00 84 1017.8
20260830204529 68 315 1.0 3.0 0.00 0.00 0.00 84 1017.9
20260830203028 68 326 0.0 3.0 0.00 0.00 0.00 83 1017.8
20260830201527 69 346 4.0 9.0 0.00 0.00 0.00 80 1018.0
20260830200026 70 280 3.0 6.0 0.00 0.00 0.00 77 1017.9
20260830194526 71 333 3.0 9.0 0.00 0.00 0.00 74 1017.7
20260830193024 72 33 3.0 10.0 0.00 0.00 0.00 74 1017.7
20260830191524 73 302 5.0 9.0 0.00 0.00 0.00 72 1017.7
20260830190024 72 315 3.0 8.0 0.00 0.00 0.00 73 1017.7
20260830184522 73 228 5.0 11.0 0.00 0.00 0.00 70 1017.9
20260830183022 73 196 4.0 13.0 0.00 0.00 0.00 69 1017.8
20260830181522 74 226 1.0 10.0 0.00 0.00 0.00 68 1017.8
20260830180022 74 199 3.0 7.0 0.00 0.00 0.00 64 1017.7
20260830174520 75 206 3.0 9.0 0.00 0.00 0.00 62 1017.8
20260830173022 76 260 4.0 12.0 0.00 0.00 0.00 59 1017.9
20260830171519 77 250 5.0 14.0 0.00 0.00 0.00 58 1017.9
20260830170017 78 117 4.0 12.0 0.00 0.00 0.00 60 1017.9
20260830164516 78 259 2.0 9.0 0.00 0.00 0.00 62 1018.0
20260830163015 77 219 3.0 8.0 0.00 0.00 0.00 62 1018.1
20260830161515 76 84 1.0 9.0 0.00 0.00 0.00 62 1018.4
20260830160010 76 307 4.0 11.0 0.00 0.00 0.00 66 1018.7
20260830154503 75 236 4.0 10.0 0.00 0.00 0.00 68 1018.7
20260830153059 73 267 1.0 8.0 0.00 0.00 0.00 71 1018.8
20260830151557 72 138 2.0 10.0 0.00 0.00 0.00 73 1018.9
20260830150109 72 221 4.0 8.0 0.00 0.00 0.00 72 1018.9
20260830144551 70 247 4.0 9.0 0.00 0.00 0.00 73 1018.9
20260830143050 70 178 4.0 11.0 0.00 0.00 0.00 72 1018.8
20260830141547 69 292 3.0 10.0 0.00 0.00 0.00 75 1018.8
20260830140043 68 249 2.0 9.0 0.00 0.00 0.00 74 1018.7
20260830134543 68 205 3.0 8.0 0.00 0.00 0.00 74 1018.6
20260830133039 67 213 4.0 11.0 0.00 0.00 0.00 74 1018.7
20260830131543 65 220 2.0 7.0 0.00 0.00 0.00 78 1019.1
20260830130031 65 221 2.0 6.0 0.00 0.00 0.00 78 1019.1
20260830124529 64 174 2.0 5.0 0.00 0.00 0.00 79 1019.3
20260830123023 64 193 1.0 3.0 0.00 0.00 0.00 78 1019.5
20260830121523 64 221 0.0 5.0 0.00 0.00 0.00 78 1019.4
20260830120019 63 219 1.0 4.0 0.00 0.00 0.00 78 1019.5
20260830114519 62 213 1.0 3.0 0.00 0.00 0.00 79 1019.4
20260830113015 62 234 1.0 3.0 0.00 0.00 0.00 81 1019.5
20260830111511 61 194 1.0 4.0 0.00 0.00 0.00 78 1019.7
20260830110009 61 238 1.0 3.0 0.00 0.00 0.00 78 1019.7
20260830104508 60 198 2.0 4.0 0.00 0.00 0.00 79 1019.7
20260830103010 60 247 0.0 3.0 0.00 0.00 0.00 78 1019.7
20260830101507 60 242 1.0 3.0 0.00 0.00 0.00 78 1019.7
20260830100007 60 262 0.0 2.0 0.00 0.00 0.00 78 1019.7
20260830094504 60 232 1.0 3.0 0.00 0.00 0.00 79 1019.9
20260830093003 60 248 0.0 3.0 0.00 0.00 0.00 80 1020.0
20260830091508 60 218 0.0 2.0 0.00 0.00 0.00 79 1020.2
20260830084558 60 194 0.0 0.0 0.00 0.00 0.00 80 1020.3
20260830083058 61 194 0.0 0.0 0.00 0.00 0.00 78 1020.5
20260830081558 61 194 0.0 0.0 0.00 0.00 0.00 76 1020.5
20260830080057 61 202 1.0 3.0 0.00 0.00 0.00 77 1020.5
20260830074605 62 232 0.0 3.0 0.00 0.00 0.00 76 1020.6
20260830073056 62 194 1.0 3.0 0.00 0.00 0.00 76 1020.6
20260830071601 62 190 1.0 6.0 0.00 0.00 0.00 76 1020.7
20260830070048 62 219 1.0 5.0 0.00 0.00 0.00 76 1020.8
20260830064604 62 197 1.0 4.0 0.00 0.00 0.00 76 1020.8
20260830063048 62 187 2.0 5.0 0.00 0.00 0.00 75 1021.1
20260830061548 62 207 2.0 5.0 0.00 0.00 0.00 75 1020.9
20260830060047 62 188 2.0 5.0 0.00 0.00 0.00 76 1020.8
20260830054545 62 218 2.0 5.0 0.00 0.00 0.00 75 1020.9
20260830053044 63 209 2.0 5.0 0.00 0.00 0.00 75 1021.0
20260830051543 62 199 2.0 7.0 0.00 0.00 0.00 74 1020.9
20260830050042 62 202 1.0 4.0 0.00 0.00 0.00 75 1021.0
20260830044604 62 213 1.0 4.0 0.00 0.00 0.00 76 1021.1
20260830043038 62 194 2.0 4.0 0.00 0.00 0.00 76 1021.1
20260830041554 61 183 1.0 3.0 0.00 0.00 0.00 78 1021.1
20260830040036 61 197 1.0 4.0 0.00 0.00 0.00 77 1021.2
20260830034533 61 202 1.0 4.0 0.00 0.00 0.00 79 1021.2
20260830033033 61 194 0.0 3.0 0.00 0.00 0.00 78 1021.0
20260830031534 61 175 1.0 4.0 0.00 0.00 0.00 79 1021.0
20260830030032 61 176 0.0 3.0 0.00 0.00 0.00 79 1021.1
20260830024531 61 212 1.0 4.0 0.00 0.00 0.00 78 1021.3
20260830023030 61 204 1.0 3.0 0.00 0.00 0.00 78 1021.3
20260830021533 61 206 1.0 3.0 0.00 0.00 0.00 78 1021.3
20260830020032 61 198 2.0 4.0 0.00 0.00 0.00 78 1021.3
20260830014534 62 231 2.0 4.0 0.00 0.00 0.00 78 1021.3
20260830013028 62 176 2.0 5.0 0.00 0.00 0.00 78 1021.3
20260830011528 62 221 1.0 3.0 0.00 0.00 0.00 77 1021.3
20260830010027 62 246 1.0 4.0 0.00 0.00 0.00 76 1021.1
20260830004527 62 200 2.0 4.0 0.00 0.00 0.00 75 1021.0
20260830003027 63 246 1.0 3.0 0.00 0.00 0.00 75 1021.1